Location: Nairn
(57.5833°N, 3.8667°W)
Time: 03:02:34
(UTC+00:00)

Transit 2A - Pass Details

Date: 02 December 2020
Orbit: 598 x 960 km, 66.7° (Epoch: 20 January)

Event Time Altitude Azimuth Distance (km) Brightness Sun altitude
Rises 18:51:10 0° 244° (WSW) 3,597 10.6 -24.6°
Reaches altitude 10° 18:53:50 10° 248° (WSW) 2,623 9.7 -25.0°
Maximum altitude 18:59:52 57° 327° (NNW) 1,023 6.7 -25.8°
Enters shadow 19:01:26 44° 19° (NNE) 1,186 6.7 -26.0°
